Home   Weather   Hürth   Past weeks

Flag for Germany Past Weather in Hürth, North Rhine-Westphalia, Germany — Yesterday and Last 2 Weeks

Now
66 °F

Partly cloudy.


Feels Like: 66 °F
Forecast: 62 / 73 °F
Wind: 16 mph from West

Location: Noervenich

Current Time: Jun 26, 2017 at 12:35:58 am

Latest Report: Jun 25, 2017 at 11:20 pm


Visibility: N/A

Pressure: 29.92 "Hg

Humidity: 64%

Dew Point: 54 °F

Location of HürthLocation

Past Weather in Hürth — Graph

°F

Hürth Temperature Yesterday

Maximum temperature yesterday: 73 °F (at 2:20 pm)
Minimum temperature yesterday: 63 °F (at 6:20 am)
Average temperature yesterday: 68 °F

High & Low Weather Summary for the Past Weeks

 TemperatureHumidityPressure
High95 °F (Jun 22, 1:20 pm)94% (Jun 14, 4:20 am)30.18 "Hg (Jun 14, 4:20 am)
Low48 °F (Jun 14, 6:20 am)25% (Jun 19, 5:20 pm)29.77 "Hg (Jun 22, 5:20 pm)
Average70 °F57%30.01 "Hg
* Reported Jun 10 10:20 pm — Jun 25 10:20 pm, Hürth. Weather by CustomWeather, © 2017

Note: Actual official high and low records may vary slightly from our data, if they occured in-between our weather recording intervals... More about our weather records

Advertising

Hürth Weather History for the Previous 24 Hours

Scroll right to see more
 ConditionsComfort  
Time TempWeatherWind HumidityBarometerVisibility
10:20 pm
Sun, Jun 25
68 °FPassing clouds.17 mph60%29.92 "HgN/A
9:20 pm70 °FScattered clouds.22 mph57%29.89 "HgN/A
8:20 pm72 °FPartly sunny.12 mph53%29.89 "HgN/A
7:20 pm72 °FBroken clouds.17 mph50%29.89 "HgN/A
6:20 pm72 °FPartly sunny.14 mph50%29.89 "HgN/A
5:20 pm72 °FScattered clouds.14 mph50%29.92 "HgN/A
4:20 pm72 °FPartly sunny.20 mph50%29.92 "HgN/A
3:20 pm72 °FBroken clouds.21 mph47%29.92 "HgN/A
2:20 pm73 °FBroken clouds.15 mph47%29.92 "HgN/A
1:20 pm72 °FPartly sunny.20 mph50%29.92 "HgN/A
12:20 pm68 °FMild.17 mph60%29.92 "HgN/A
11:20 am68 °FMild.18 mph64%29.89 "HgN/A
10:20 am66 °FMild.16 mph73%29.89 "HgN/A
9:20 am66 °FMild.15 mph73%29.89 "HgN/A
8:20 am64 °FMild.14 mph78%29.89 "HgN/A
7:20 am64 °FMild.14 mph78%29.89 "HgN/A
6:20 am63 °FMild.16 mph83%29.89 "HgN/A
5:20 am64 °FPartly sunny.10 mph73%29.89 "HgN/A
4:20 am66 °FPartly cloudy.9 mph68%29.92 "HgN/A
3:20 am66 °FPartly cloudy.10 mph68%29.92 "HgN/A
2:20 am66 °FPassing clouds.9 mph68%29.92 "HgN/A
1:20 am66 °FPartly cloudy.6 mph68%29.95 "HgN/A
12:20 am68 °FPassing clouds.3 mph64%29.95 "HgN/A
Weather by CustomWeather, © 2017

See weather overviewHow to use our weather pages